Regional Weather Roundup
Issued by NWS

Home | Current Version | Previous Version | Text Only | Print | Product List | Glossary Off
Versions: 1 2 3 4 5 6 7 8 9 10 11 12 13 14 15 16 17 18 19 20 21 22 23 24 25 26 27 28 29 30 31 32 33 34 35 36 37 38 39 40 41 42 43 44 45 46 47 48 49 50

000
ASUS45 KABQ 220510
RWRNM
WEATHER ROUNDUP FOR NEW MEXICO
NATIONAL WEATHER SERVICE ALBUQUERQUE NM
1100 PM MDT MON JUL 21 2014

NOTE: "FAIR" MEANS FEW OR NO CLOUDS BELOW 12,000 FEET AGL WITH NO
       SIGNIFICANT WEATHER OR OBSTRUCTIONS TO VISION.

      THIS PRODUCT IS RELEASED AS TWO VERSIONS.  ONE VERSION NEAR
      THE TOP OF THE HOUR CONTAINING PRELIMINARY DATA FROM ALBUQUERQUE
      AND OTHER STATIONS.  A FINAL VERSION WITH ADDITIONAL DATA IS
      ISSUED ABOUT 10 MINUTES AFTER THE HOUR.

NMZ501-503-504-510>518-220600-
NORTHWEST PLATEAU/NORTHCENTRAL MOUNTAINS

CITY           SKY/WX    TMP DP  RH WIND       PRES   REMARKS
FARMINGTON     CLEAR     72  27  18 NE8       30.20R
LOS ALAMOS     PTCLDY    72  45  38 SW8       30.38R
SANTA FE       PTCLDY    76  46  34 S10       30.30R
TAOS           PTCLDY    66  45  45 CALM      30.39S
ANGEL FIRE     FAIR      51  49  92 CALM      30.53R

$$
NMZ402-403-502-505>509-220600-
WESTCENTRAL MOUNTAINS/SOUTHWEST MOUNTAINS

CITY           SKY/WX    TMP DP  RH WIND       PRES   REMARKS
GALLUP         PTCLDY    71  34  25 CALM      30.32R
GRANTS         MOCLDY    68  47  47 CALM      30.34R
SILVER CITY    MOCLDY    75  46  35 N7        30.25S

$$
NMZ407-409-411-412-220600-
SOUTHERN DESERTS

CITY           SKY/WX    TMP DP  RH WIND       PRES   REMARKS
LORDSBURG      FAIR      82  46  28 CALM      30.14R
DEMING         MOCLDY    78  46  32 CALM      30.14R
LAS CRUCES     PTCLDY    83  49  30 SE5       30.16S
HOLLOMAN AFB   PTCLDY    85  49  28 NW7       30.11R
ALAMOGORDO     PTCLDY    84  50  30 SE10      30.14R
T OR C         MOCLDY    85  47  26 W8        30.16R

$$
NMZ519>523-220600-
CENTRAL VALLEYS/CENTRAL HIGHLANDS

CITY           SKY/WX    TMP DP  RH WIND       PRES   REMARKS
ALBUQUERQUE    MOCLDY    81  46  29 SE6       30.21S
DOUBLE EAGLE   MOCLDY    75  50  40 S6        30.25S
MORIARTY ARPT  FAIR      71  49  44 NE7       30.32R
CLINES CORNERS MOCLDY    70  51  51 E8        30.37R
BELEN          FAIR      78  47  34 S6        30.19S
SOCORRO        FAIR      85  45  24 W5        30.16F

$$
NMZ524>526-539-540-220600-
SOUTHCENTRAL MOUNTAINS

CITY           SKY/WX    TMP DP  RH WIND       PRES   REMARKS
RUIDOSO        CLEAR     68  50  52 MISG      30.38R

$$
NMZ527>531-220600-
NORTHEAST HIGHLANDS/NORTHEAST PLAINS

CITY           SKY/WX    TMP DP  RH WIND       PRES   REMARKS
LAS VEGAS      CLOUDY    69  52  54 CALM      30.37S
RATON          CLOUDY    68  55  63 NW3       30.31R
CLAYTON        CLOUDY    71  60  68 S10       30.24R

$$
NMZ532>537-220600-
EASTCENTRAL PLAINS

CITY           SKY/WX    TMP DP  RH WIND       PRES   REMARKS
TUCUMCARI      LGT RAIN  71  63  75 E5        30.20R
CANNON AFB     MOCLDY    80  61  51 N15G21    30.20R
CLOVIS AIRPORT NOT AVBL

$$
NMZ028-029-538-220600-
SOUTHEAST PLAINS

CITY           SKY/WX    TMP DP  RH WIND       PRES   REMARKS
ROSWELL        CLEAR     82  57  42 SE9       30.08R
ARTESIA        PTCLDY    81  59  47 S8        30.09R
CARLSBAD       MOCLDY    87  60  40 S6        30.06R
HOBBS          MOCLDY    84  55  37 SE9       30.13R


$$


USA.gov is the U.S. government's official web portal to all federal, state and local government web resources and services.